DateTimeUTC,F1_A11,F1_S11,BsB_S11,BsG_S11,BsR_S11,BbsB_S11,BbsG_S11,BbsR_S11,BaB_A11,BaG_A11,BaR_A11,Tu_S11,T_S11,Uu_S11,U_S11,P_S11,T1_A11
2021-11-21T04:00:00Z,00000200,21000000,,,,,,,0000.31,0000.43,0000.04,18.4,25.2,,00.0,0629.7,30.8
2021-11-21T04:01:00Z,00000200,21000000,,,,,,,-000.32,-000.51,-000.18,18.4,25.2,,00.0,0629.8,30.8
2021-11-21T04:02:00Z,00000200,21000000,,,,,,,-000.20,0000.16,0000.06,18.4,25.2,,00.0,0629.8,30.8
2021-11-21T04:03:00Z,00000200,61000000,,,,,,,0000.37,0000.50,0000.04,18.4,25.2,,00.0,0629.8,30.8
2021-11-21T04:04:00Z,00000200,41000000,0000.20,-000.14,0000.04,0000.59,-000.01,0000.05,0000.29,-000.27,0000.10,18.4,25.0,,00.0,0630.7,30.8
2021-11-21T04:05:00Z,00000200,01000000,-000.47,-000.21,0000.12,-000.40,-000.17,0000.03,-000.09,0000.45,0000.19,18.5,25.0,,00.0,0630.8,30.8
2021-11-21T04:06:00Z,00000200,01000000,0000.29,0000.05,-000.03,0000.59,0000.18,-000.22,0000.18,-000.20,-000.18,18.6,25.0,,00.0,0630.8,30.8
2021-11-21T04:07:00Z,00000200,01000000,-000.11,0000.15,-000.36,-000.01,-000.01,-000.01,-000.03,0000.11,0000.28,18.7,25.0,,00.0,0630.8,30.8
2021-11-21T04:08:00Z,00000200,01000000,-000.37,0000.28,0000.19,-000.05,0000.22,0000.15,-000.19,0000.07,-000.11,18.7,25.0,,00.0,0630.9,30.8
2021-11-21T04:09:00Z,00000200,01000000,-000.04,0000.07,0000.26,0000.14,-000.24,0000.15,0000.16,0000.08,0000.09,18.8,25.0,,00.0,0630.9,30.9
2021-11-21T04:10:00Z,00000200,01000000,0000.02,-000.07,-000.22,-000.63,-000.16,-000.09,0000.07,-000.02,-000.04,18.9,25.1,,00.0,0630.9,30.9
2021-11-21T04:11:00Z,00000200,01000000,-000.04,-000.22,0000.00,-000.37,-000.11,-000.04,-000.12,-000.06,-000.10,18.9,25.1,,00.0,0630.9,30.9
2021-11-21T04:12:00Z,00000200,01000000,0000.06,0000.31,0000.16,-000.57,-000.06,-000.18,-000.17,-000.21,0000.01,18.9,25.1,,00.0,0630.9,30.9
2021-11-21T04:13:00Z,00000200,01000000,0000.70,0000.05,0000.15,0000.54,0000.05,0000.31,0000.14,-000.54,-000.10,18.8,25.1,,00.0,0630.9,30.9
2021-11-21T04:14:00Z,00000200,01000000,0000.38,-000.03,-000.28,0000.00,-000.17,0000.32,-000.13,0000.50,0000.03,18.8,25.1,,00.0,0630.9,30.8
2021-11-21T04:15:00Z,00000200,01000000,0000.20,0000.07,-000.04,0000.23,0000.01,-000.10,-000.04,-000.13,-000.28,18.7,25.1,,00.0,0630.9,30.8
2021-11-21T04:16:00Z,00000200,01000000,0000.06,0000.25,0000.15,-000.15,-000.01,0000.26,-000.09,0000.07,0000.18,18.7,25.0,,00.0,0631.0,30.8
2021-11-21T04:17:00Z,00000200,01000000,-000.02,0000.14,-000.01,0000.80,-000.02,-000.25,0000.34,0000.30,0000.18,18.6,25.0,,00.0,0631.0,30.8
2021-11-21T04:18:00Z,00000200,01000000,0000.27,0000.11,0000.18,-000.04,0000.27,-000.03,0000.19,0000.33,-000.33,18.6,25.0,,00.0,0631.0,30.8
2021-11-21T04:19:00Z,00000200,01000000,0000.06,0000.09,0000.25,-000.08,0000.05,-000.04,-000.23,-000.42,0000.18,18.6,25.0,,00.0,0631.0,30.8
2021-11-21T04:20:00Z,00000200,01000000,0000.03,-000.15,0000.28,-000.04,-000.17,-000.33,0000.14,-000.06,0000.11,18.7,25.0,,00.0,0631.0,30.8
2021-11-21T04:21:00Z,00000200,01000000,0000.43,0000.19,-000.39,0000.11,0000.27,0000.05,0000.22,0000.38,0000.01,18.8,25.0,,00.0,0631.1,30.8
2021-11-21T04:22:00Z,00000200,01000000,-000.07,0000.37,-000.44,0000.89,-000.37,0000.08,0000.03,-000.03,0000.08,18.8,25.1,,00.0,0631.1,30.8
2021-11-21T04:23:00Z,00000200,01000000,0000.41,-000.28,0000.09,-000.30,-000.09,0000.26,0000.37,0000.20,0000.21,18.9,25.1,,00.0,0631.1,30.9
2021-11-21T04:24:00Z,00000200,01000000,0000.16,-000.01,-000.06,0000.37,-000.15,-000.17,-000.27,-000.15,-000.01,19.0,25.1,,00.0,0631.2,30.9
2021-11-21T04:25:00Z,00000200,01000000,0000.06,-000.23,-000.08,-000.06,0000.20,0000.04,0000.05,0000.24,0000.07,19.0,25.2,,00.0,0631.1,30.9
2021-11-21T04:26:00Z,00000200,01000000,-000.35,0000.49,-000.06,0000.19,0000.28,0000.14,-000.33,-000.40,-000.19,19.1,25.2,,00.0,0631.1,30.9
2021-11-21T04:27:00Z,00000200,01000000,0000.59,0000.05,-000.18,0000.50,0000.03,0000.07,-000.03,-000.17,-000.43,19.0,25.2,,00.0,0631.1,30.9
2021-11-21T04:28:00Z,00000200,01000000,-000.07,-000.26,-000.23,0000.41,0000.09,0000.18,0000.32,-000.16,0000.35,19.0,25.1,,00.0,0631.1,30.9
2021-11-21T04:29:00Z,00000200,01000000,-000.31,0000.12,-000.14,0000.29,0000.16,0000.05,-000.28,0000.02,0000.03,18.9,25.1,,00.0,0631.1,30.9
2021-11-21T04:30:00Z,00000200,01000000,-000.18,0000.09,0000.10,0000.37,-000.07,-000.20,0000.24,0000.35,0000.13,18.8,25.1,,00.0,0631.1,30.8
2021-11-21T04:31:00Z,00000200,01000000,-000.11,0000.22,0000.11,0000.02,-000.26,0000.08,-000.00,-000.06,-000.33,18.8,25.1,,00.0,0631.1,30.8
2021-11-21T04:32:00Z,00000200,01000000,0000.62,0000.04,-000.23,0000.55,-000.22,-000.31,-000.30,0000.38,-000.17,18.7,25.1,,00.0,0631.1,30.8
2021-11-21T04:33:00Z,00000200,01000000,-000.17,0000.35,0000.24,0000.49,-000.02,0000.09,0000.40,-000.16,0000.68,18.7,25.0,,00.0,0631.0,30.8
2021-11-21T04:34:00Z,00000200,01000000,0000.53,0000.03,0000.08,-000.05,-000.00,0000.11,0000.04,-000.18,-000.05,18.7,25.0,,00.0,0631.0,30.8
2021-11-21T04:35:00Z,00000200,01000000,0000.24,-000.19,-000.17,-000.03,-000.01,-000.05,0000.51,0000.68,0000.38,18.8,25.1,,00.0,0631.0,30.9
2021-11-21T04:36:00Z,00000200,01000000,0000.25,0000.03,-000.13,-000.16,0000.14,-000.24,-000.10,-000.18,-000.36,18.8,25.1,,00.0,0631.0,30.8
2021-11-21T04:37:00Z,00000200,01000000,-000.34,-000.10,0000.08,0000.03,0000.18,0000.14,0000.29,0000.46,0000.41,18.9,25.1,,00.0,0631.0,30.9
2021-11-21T04:38:00Z,00000200,01000000,0000.46,0000.19,0000.00,-000.11,0000.21,0000.06,0000.14,0000.19,0000.47,19.0,25.2,,00.0,0631.0,30.9
2021-11-21T04:39:00Z,00000200,01000000,0000.07,0000.35,0000.08,-000.19,0000.18,-000.13,-000.04,-000.26,-000.15,19.1,25.2,,00.0,0630.9,30.9
2021-11-21T04:40:00Z,00000200,01000000,0000.13,0000.34,0000.16,0000.66,0000.05,-000.09,0000.06,0000.18,-000.05,19.1,25.2,,00.0,0631.0,30.9
2021-11-21T04:41:00Z,00000200,01000000,0000.16,0000.11,-000.43,0000.15,-000.30,-000.10,-000.39,-000.22,0000.02,19.2,25.3,,00.0,0631.0,30.9
2021-11-21T04:42:00Z,00000200,01000000,-000.29,0000.25,0000.29,0000.42,-000.30,-000.02,0000.23,0000.26,0000.10,19.2,25.3,,00.0,0630.9,30.9
2021-11-21T04:43:00Z,00000200,01000000,0000.77,0000.16,-000.20,-000.45,-000.22,-000.13,0000.20,0000.04,0000.10,19.1,25.3,,00.0,0631.0,30.9
2021-11-21T04:44:00Z,00000200,01000000,0000.48,0000.22,0000.26,0000.10,0000.02,0000.55,-000.29,-000.17,-000.05,19.1,25.3,,00.0,0630.9,30.9
2021-11-21T04:45:00Z,00000200,01000000,0000.66,0000.27,-000.06,-000.24,-000.01,-000.08,0000.35,0000.08,-000.32,19.0,25.2,,00.0,0630.9,30.9
2021-11-21T04:46:00Z,00000200,01000000,0000.41,0000.25,0000.15,0000.15,0000.33,-000.20,-000.14,-000.14,0000.25,18.9,25.2,,00.0,0630.9,30.8
2021-11-21T04:47:00Z,00000200,01000000,0000.69,0000.24,-000.11,0000.07,0000.08,-000.10,0000.25,0000.40,0000.10,18.9,25.2,,00.0,0631.0,30.8
2021-11-21T04:48:00Z,00000200,01000000,0000.82,0000.51,0000.05,0000.24,0000.37,0000.12,0000.05,-000.03,-000.42,18.9,25.2,,00.0,0631.0,30.8
2021-11-21T04:49:00Z,00000200,01000000,0000.21,0000.10,0000.06,0000.75,-000.00,-000.00,0000.40,0000.55,0000.66,18.9,25.2,,00.0,0631.0,30.9
2021-11-21T04:50:00Z,00000200,01000000,-000.50,0000.10,-000.13,0000.31,0000.36,0000.29,0000.22,-000.21,-000.04,18.9,25.1,,00.0,0631.0,30.8
2021-11-21T04:51:00Z,00000200,01000000,0000.08,0000.41,-000.11,-000.20,0000.27,-000.42,-000.38,0000.22,0000.00,19.0,25.2,,00.0,0631.0,30.8
2021-11-21T04:52:00Z,00000200,01000000,-000.23,0000.08,0000.10,0000.42,0000.09,-000.06,0000.31,-000.07,0000.43,19.1,25.2,,00.0,0631.0,30.9
2021-11-21T04:53:00Z,00000200,01000000,-000.05,-000.03,-000.17,-000.22,-000.08,-000.01,0000.24,-000.09,-000.13,19.1,25.3,,00.0,0631.0,30.9
2021-11-21T04:54:00Z,00000200,01000000,0000.15,-000.08,0000.29,0000.08,-000.16,-000.30,-000.35,-000.06,0000.06,19.2,25.3,,00.0,0631.0,30.9
2021-11-21T04:55:00Z,00000200,01000000,0000.39,-000.01,0000.18,-000.28,0000.19,0000.22,-000.28,-000.15,-000.43,19.1,25.3,,00.0,0631.0,30.9
2021-11-21T04:56:00Z,00000200,01000000,-000.62,0000.09,-000.01,-000.30,-000.15,0000.07,0000.33,0000.18,0000.33,19.1,25.3,,00.0,0631.0,30.9
2021-11-21T04:57:00Z,00000200,41000000,,,,,,,-000.18,0000.02,-000.05,19.1,25.3,,00.0,0631.1,30.9
2021-11-21T04:58:00Z,00000200,61000000,,,,,,,-000.04,-000.08,-000.05,18.7,25.3,,00.0,0630.2,30.8
2021-11-21T04:59:00Z,00000200,21000000,,,,,,,0000.30,0000.02,-000.27,18.7,25.4,,00.0,0630.2,30.9
